| time (UTC) | temp F | wind direction | speed knots | gust knots | rain 1hr in | rain 24hr in | rain mn in | humidity % | barometer mb |
| 20260505004519 | 57 | 0.0 | 0.9 | 0.00 | 0.00 | 0.00 | 91 | 1029.4 | |
| 20260505003518 | 57 | 90 | 0.9 | 1.7 | 0.00 | 0.00 | 0.00 | 92 | 1029.4 |
| 20260505002518 | 56 | 0.0 | 0.0 | 0.00 | 0.00 | 0.00 | 92 | 1029.3 | |
| 20260505001518 | 56 | 0.0 | 0.9 | 0.00 | 0.00 | 0.00 | 93 | 1029.3 | |
| 20260505000518 | 56 | 0.0 | 0.9 | 0.00 | 0.00 | 0.00 | 93 | 1029.2 | |
| 20260504235519 | 55 | 0.0 | 0.0 | 0.00 | 0.00 | 0.00 | 93 | 1029.0 | |
| 20260504234518 | 55 | 0.0 | 0.9 | 0.00 | 0.00 | 0.00 | 93 | 1028.9 | |
| 20260504233518 | 55 | 0.0 | 0.0 | 0.00 | 0.00 | 0.00 | 93 | 1028.8 | |
| 20260504232518 | 55 | 0.0 | 0.0 | 0.00 | 0.00 | 0.00 | 93 | 1028.8 | |
| 20260504231518 | 55 | 0.0 | 0.0 | 0.00 | 0.00 | 0.00 | 93 | 1028.8 | |
| 20260504230518 | 54 | 0.0 | 0.0 | 0.00 | 0.00 | 0.00 | 93 | 1028.6 | |
| 20260504225518 | 55 | 0.0 | 0.0 | 0.00 | 0.00 | 0.00 | 93 | 1028.6 | |
| 20260504224518 | 55 | 0.0 | 1.7 | 0.00 | 0.00 | 0.00 | 93 | 1028.5 | |
| 20260504223519 | 55 | 0.0 | 0.0 | 0.00 | 0.00 | 0.00 | 93 | 1028.2 | |
| 20260504222518 | 55 | 0.0 | 0.9 | 0.00 | 0.00 | 0.00 | 93 | 1028.2 | |
| 20260504221518 | 55 | 0.0 | 0.0 | 0.00 | 0.00 | 0.00 | 93 | 1028.2 | |
| 20260504220518 | 55 | 0.0 | 0.9 | 0.00 | 0.00 | 0.00 | 93 | 1028.2 | |
| 20260504215518 | 54 | 0.0 | 0.9 | 0.00 | 0.00 | 0.00 | 93 | 1028.3 | |
| 20260504214518 | 54 | 0.0 | 0.0 | 0.00 | 0.01 | 0.00 | 93 | 1028.2 | |
| 20260504213518 | 54 | 0.0 | 0.0 | 0.00 | 0.01 | 0.00 | 93 | 1028.2 | |
| 20260504212518 | 54 | 0.0 | 0.0 | 0.00 | 0.02 | 0.00 | 93 | 1028.3 | |
| 20260504211518 | 54 | 0.0 | 0.0 | 0.00 | 0.02 | 0.00 | 93 | 1028.2 | |
| 20260504210518 | 54 | 0.0 | 0.0 | 0.00 | 0.02 | 0.00 | 93 | 1028.2 | |
| 20260504205538 | 54 | 0.0 | 0.0 | 0.00 | 0.02 | 0.00 | 93 | 1028.2 | |
| 20260504204518 | 54 | 0.0 | 0.0 | 0.00 | 0.02 | 0.00 | 93 | 1028.1 | |
| 20260504203518 | 55 | 0.0 | 0.0 | 0.00 | 0.02 | 0.00 | 93 | 1028.0 | |
| 20260504202518 | 55 | 0.0 | 0.0 | 0.00 | 0.02 | 0.00 | 93 | 1027.8 | |
| 20260504201518 | 55 | 0.0 | 0.9 | 0.00 | 0.02 | 0.00 | 93 | 1027.8 | |
| 20260504200518 | 55 | 0.0 | 0.0 | 0.00 | 0.02 | 0.00 | 93 | 1027.8 | |
| 20260504195518 | 55 | 0.0 | 0.0 | 0.00 | 0.02 | 0.00 | 93 | 1027.9 | |
| 20260504194538 | 55 | 0.0 | 0.9 | 0.00 | 0.02 | 0.00 | 93 | 1027.9 | |
| 20260504193538 | 54 | 0.0 | 0.0 | 0.00 | 0.02 | 0.00 | 93 | 1027.9 | |
| 20260504192518 | 54 | 0.0 | 0.0 | 0.00 | 0.02 | 0.00 | 93 | 1027.9 | |
| 20260504191518 | 54 | 0.0 | 0.0 | 0.00 | 0.02 | 0.00 | 93 | 1028.0 | |
| 20260504190517 | 54 | 0.0 | 0.0 | 0.00 | 0.02 | 0.00 | 93 | 1028.0 | |
| 20260504185518 | 54 | 0.0 | 0.0 | 0.00 | 0.02 | 0.00 | 93 | 1028.0 | |
| 20260504184518 | 54 | 0.0 | 0.0 | 0.00 | 0.02 | 0.00 | 93 | 1027.9 | |
| 20260504183517 | 54 | 0.0 | 0.0 | 0.00 | 0.03 | 0.00 | 93 | 1028.0 | |
| 20260504182537 | 54 | 0.0 | 0.0 | 0.00 | 0.03 | 0.00 | 93 | 1028.0 | |
| 20260504181517 | 53 | 0.0 | 0.0 | 0.00 | 0.03 | 0.00 | 93 | 1027.9 | |
| 20260504180518 | 53 | 0.0 | 0.0 | 0.00 | 0.03 | 0.00 | 92 | 1027.9 | |
| 20260504175537 | 53 | 0.0 | 0.0 | 0.00 | 0.03 | 0.00 | 92 | 1028.0 | |
| 20260504174517 | 53 | 0.0 | 0.0 | 0.00 | 0.03 | 0.00 | 92 | 1028.0 | |
| 20260504173518 | 53 | 0.0 | 0.0 | 0.00 | 0.03 | 0.00 | 92 | 1028.0 | |
| 20260504172518 | 53 | 0.0 | 0.0 | 0.00 | 0.03 | 0.00 | 92 | 1028.1 | |
| 20260504171517 | 53 | 0.0 | 0.0 | 0.00 | 0.03 | 0.00 | 92 | 1028.0 | |
| 20260504170517 | 53 | 0.0 | 0.0 | 0.00 | 0.03 | 0.00 | 92 | 1028.1 | |
| 20260504150517 | 55 | 0.0 | 0.0 | 0.00 | 0.03 | 0.03 | 90 | 1028.6 | |
| 20260504140517 | 57 | 0.0 | 0.0 | 0.00 | 0.04 | 0.03 | 90 | 1028.8 | |
| 20260504130517 | 57 | 0.0 | 0.0 | 0.00 | 0.04 | 0.03 | 90 | 1029.0 | |
| 20260504110518 | 59 | 0.0 | 1.7 | 0.00 | 0.04 | 0.03 | 89 | 1029.0 | |
| 20260504100518 | 59 | 0.0 | 1.7 | 0.00 | 0.04 | 0.03 | 87 | 1028.6 | |
| 20260504081518 | 62 | 113 | 0.9 | 2.6 | 0.00 | 0.04 | 0.03 | 82 | 1028.1 |
| 20260504080517 | 63 | 158 | 0.9 | 3.5 | 0.00 | 0.04 | 0.03 | 82 | 1028.1 |
| 20260504050517 | 64 | 0.0 | 0.9 | 0.00 | 0.04 | 0.03 | 71 | 1028.0 | |
| 20260504045537 | 65 | 270 | 0.9 | 2.6 | 0.00 | 0.04 | 0.03 | 70 | 1028.2 |
| 20260504044537 | 65 | 0.0 | 0.9 | 0.00 | 0.04 | 0.03 | 72 | 1028.2 | |
| 20260504043518 | 64 | 0.0 | 0.0 | 0.00 | 0.04 | 0.03 | 75 | 1028.4 | |
| 20260504042517 | 64 | 0.0 | 0.9 | 0.00 | 0.04 | 0.03 | 75 | 1028.6 | |
| 20260504041537 | 63 | 0.0 | 0.9 | 0.00 | 0.04 | 0.03 | 76 | 1028.7 | |
| 20260504040517 | 63 | 0.0 | 1.7 | 0.00 | 0.04 | 0.03 | 75 | 1028.8 | |
| 20260504035517 | 62 | 225 | 0.9 | 3.5 | 0.00 | 0.04 | 0.03 | 79 | 1028.8 |
| 20260504034517 | 62 | 225 | 0.9 | 2.6 | 0.00 | 0.04 | 0.03 | 81 | 1029.0 |
| 20260504033517 | 62 | 225 | 0.9 | 2.6 | 0.00 | 0.04 | 0.03 | 84 | 1029.1 |
| 20260504032517 | 62 | 225 | 0.9 | 2.6 | 0.00 | 0.04 | 0.03 | 86 | 1029.3 |
| 20260504031517 | 61 | 248 | 0.9 | 3.5 | 0.00 | 0.04 | 0.03 | 89 | 1029.3 |
| 20260504030518 | 61 | 248 | 0.9 | 2.6 | 0.00 | 0.04 | 0.03 | 91 | 1029.3 |
| 20260504025517 | 61 | 0.0 | 1.7 | 0.00 | 0.04 | 0.03 | 92 | 1029.4 | |
| 20260504024537 | 60 | 225 | 0.9 | 1.7 | 0.00 | 0.04 | 0.03 | 93 | 1029.3 |
| 20260504023519 | 60 | 0.0 | 0.9 | 0.00 | 0.04 | 0.03 | 94 | 1029.4 | |
| 20260504022519 | 59 | 180 | 0.9 | 1.7 | 0.00 | 0.04 | 0.03 | 94 | 1029.4 |
| 20260504021519 | 59 | 0.0 | 1.7 | 0.00 | 0.04 | 0.03 | 94 | 1029.4 | |
| 20260504020519 | 59 | 225 | 0.9 | 2.6 | 0.00 | 0.04 | 0.03 | 94 | 1029.4 |
| 20260504015519 | 58 | 0.0 | 0.9 | 0.00 | 0.04 | 0.03 | 94 | 1029.4 | |
| 20260504014519 | 58 | 248 | 0.9 | 1.7 | 0.00 | 0.04 | 0.03 | 94 | 1029.3 |
| 20260504013519 | 57 | 0.0 | 2.6 | 0.00 | 0.04 | 0.03 | 94 | 1029.4 | |
| 20260504012519 | 57 | 225 | 0.9 | 2.6 | 0.00 | 0.04 | 0.03 | 95 | 1029.6 |
| 20260504011519 | 57 | 0.0 | 1.7 | 0.00 | 0.04 | 0.03 | 95 | 1029.6 | |
| 20260504010519 | 57 | 0.0 | 0.9 | 0.00 | 0.04 | 0.03 | 95 | 1029.6 | |
| 20260504005519 | 57 | 0.0 | 0.9 | 0.00 | 0.04 | 0.03 | 95 | 1029.7 |